Location: Hurstbourne Priors
(51.2000°N, 1.3667°W)
Time: 08:59:57
(UTC+00:00)

Cosmos 1892 - Pass Details

Date: 09 April 2020
Orbit: 503 x 526 km, 82.5° (Epoch: 01 June)

Event Time Altitude Azimuth Distance (km) Brightness Sun altitude
Rises 19:54:23 0° 359° (N) 2,676 6.7 -9.9°
Reaches altitude 10° 19:56:53 10° 14° (NNE) 1,782 5.6 -10.3°
Maximum altitude 20:00:03 23° 68° (ENE) 1,161 4.1 -10.7°
Enters shadow 20:02:01 16° 108° (ESE) 1,433 4.3 -11.0°
